WetterOnline ( https://www.wetteronline.de )

Wetter aktuell Allgäuer Alpen (in 800m)

Aktuelles Wetter: Oberstdorf (812m)

6-stündlich | Neueste Meldungen
Ortszeit Temperatur Wetter
Fr, 23.02. 1:00 5.3° C leichter Regen
Do, 22.02. 19:00 11.0° C leichter Regen
Do, 22.02. 13:00 13.8° C bewölkt
Do, 22.02. 7:00 6.2° C bewölkt
Do, 22.02. 1:00 4.3° C wolkig
Mi, 21.02. 19:00 4.9° C bedeckt
Mi, 21.02. 13:00 11.3° C leicht bewölkt
Mi, 21.02. 7:00 -2.1° C wolkig
Ortszeit Temperatur Wetter
Fr, 23.02. 6:30 1.3° C Schneeregen
Fr, 23.02. 6:20 1.3° C Schneeregen
Fr, 23.02. 6:10 1.4° C leichter Schneeregen
Fr, 23.02. 6:00 1.9° C leichter Regen
Fr, 23.02. 5:50 1.9° C leichter Regen
Fr, 23.02. 5:40 2.1° C leichter Regen
Fr, 23.02. 5:30 2.1° C leichter Regen
Fr, 23.02. 5:00 2.3° C leichter Regen
Fr, 23.02. 4:30 2.7° C leichter Regen
Fr, 23.02. 4:00 3.7° C leichter Regen
Fr, 23.02. 3:30 3.6° C leichter Regen
Ortszeit Relative Feuchte Sichtweite
Fr, 23.02. 1:00 77% 9 km
Do, 22.02. 19:00 61% 55 km
Do, 22.02. 13:00 48% >70 km
Do, 22.02. 7:00 77% >70 km
Do, 22.02. 1:00 90% >70 km
Mi, 21.02. 19:00 88% >70 km
Mi, 21.02. 13:00 47% >70 km
Mi, 21.02. 7:00 93% >70 km
Ortszeit Relative Feuchte Sichtweite
Fr, 23.02. 6:30 95% 11 km
Fr, 23.02. 6:20 95% -
Fr, 23.02. 6:10 96% -
Fr, 23.02. 6:00 96% 17 km
Fr, 23.02. 5:50 96% -
Fr, 23.02. 5:40 94% -
Fr, 23.02. 5:30 93% 17 km
Fr, 23.02. 5:00 94% 11 km
Fr, 23.02. 4:30 89% 9 km
Fr, 23.02. 4:00 81% 11 km
Fr, 23.02. 3:30 85% 45 km
Ortszeit Niederschlagsmenge Niederschlagsart
Fr, 23.02. 1:00 2 l/m2 in 6 Std. Regen
Do, 22.02. 19:00 0.1 l/m2 in 12 Std. Regen
Do, 22.02. 13:00 0.1 l/m2 in 6 Std. Regen
Do, 22.02. 7:00 0.0 l/m2 in 12 Std. -
Do, 22.02. 1:00 0.0 l/m2 in 6 Std. -
Mi, 21.02. 19:00 0.0 l/m2 in 12 Std. -
Mi, 21.02. 13:00 0.0 l/m2 in 6 Std. -
Mi, 21.02. 7:00 0.0 l/m2 in 12 Std. -
Ortszeit Niederschlagsmenge Niederschlagsart
Fr, 23.02. 6:30 0.7 l/m2 in 30 Min -
Fr, 23.02. 6:20 keine Meldung -
Fr, 23.02. 6:10 keine Meldung -
Fr, 23.02. 6:00 1.1 l/m2 in 1 Std. Regen
Fr, 23.02. 5:50 keine Meldung -
Fr, 23.02. 5:40 keine Meldung -
Fr, 23.02. 5:30 0.6 l/m2 in 30 Min -
Fr, 23.02. 5:00 1.7 l/m2 in 1 Std. Regen
Fr, 23.02. 4:30 1.0 l/m2 in 30 Min -
Fr, 23.02. 4:00 0.4 l/m2 in 1 Std. Regen
Fr, 23.02. 3:30 0.1 l/m2 in 30 Min -
Ortszeit Stärke Spitze Richtung
km/h Bft. km/h Grad Sektor
Fr, 23.02. 1:00 11 2 54 110° O
Do, 22.02. 19:00 20 4 41 210° SW
Do, 22.02. 13:00 14 3 43 280° W
Do, 22.02. 7:00 4 1 29 30° NO
Do, 22.02. 1:00 4 1 14 220° SW
Mi, 21.02. 19:00 7 2 18 180° S
Mi, 21.02. 13:00 4 1 11 230° SW
Mi, 21.02. 7:00 4 1 11 120° SO
Ortszeit Stärke Spitze Richtung
km/h Bft. km/h Grad Sektor
Fr, 23.02. 6:30 4 1 7 200° S
Fr, 23.02. 6:20 4 1 - 200° S
Fr, 23.02. 6:10 4 1 - 140° SO
Fr, 23.02. 6:00 7 2 11 250° W
Fr, 23.02. 5:50 7 2 - 250° W
Fr, 23.02. 5:40 4 1 - 140° SO
Fr, 23.02. 5:30 6 1 7 130° SO
Fr, 23.02. 5:00 7 2 11 220° SW
Fr, 23.02. 4:30 7 2 11 120° SO
Fr, 23.02. 4:00 4 1 22 160° S
Fr, 23.02. 3:30 14 3 22 160° S
Ortszeit Untergrenze Bedeckung Gattung
total tief tief mittel hoch
Fr, 23.02. 1:00 540 m 8/8 8/8 - - -
Do, 22.02. 19:00 1200 m 8/8 8/8 - - -
Do, 22.02. 13:00 1500 m 7/8 7/8 - - -
Do, 22.02. 7:00 2100 m 7/8 7/8 - - -
Do, 22.02. 1:00 2100 m 7/8 3/8 - - -
Mi, 21.02. 19:00 3000 m 8/8 8/8 - - -
Mi, 21.02. 13:00 6300 m 3/8 3/8 - - -
Mi, 21.02. 7:00 2400 m 5/8 5/8 - - -
Ortszeit Bedeckungsgrad in Achtel und Wolkenuntergrenze
Fr, 23.02. 6:30 2(240m) 4(510m)
Fr, 23.02. 6:20 2(240m) 4(510m)
Fr, 23.02. 6:10 3
Fr, 23.02. 6:00 6(540m)
Fr, 23.02. 5:50 6(540m)
Fr, 23.02. 5:40 6
Fr, 23.02. 5:30 7(540m)
Fr, 23.02. 5:00 1(270m) 7(540m)
Fr, 23.02. 4:30 2(300m) 8(510m)
Fr, 23.02. 4:00 1(300m) 6(780m) 7(960m)
Fr, 23.02. 3:30 2(810m)
Ortszeit Stationsdruck (hPa) Tendenz (hPa in 3 Std.)
Fr, 23.02. 1:00 908 + 3,7
Do, 22.02. 19:00 906 - 0,2
Do, 22.02. 13:00 910 - 3,2
Do, 22.02. 7:00 914 - 1,4
Do, 22.02. 1:00 919 - 2,5
Mi, 21.02. 19:00 924 - 0,4
Mi, 21.02. 13:00 927 - 2,2
Mi, 21.02. 7:00 930 - 2,1
Ortszeit Stationsdruck (hPa) Tendenz (hPa in 3 Std.)
Fr, 23.02. 6:30 908 0,0
Fr, 23.02. 6:20 908 keine Meldung
Fr, 23.02. 6:10 908 keine Meldung
Fr, 23.02. 6:00 908 - 0,4
Fr, 23.02. 5:50 908 keine Meldung
Fr, 23.02. 5:40 908 keine Meldung
Fr, 23.02. 5:30 908 - 0,3
Fr, 23.02. 5:00 908 - 0,1
Fr, 23.02. 4:30 908 - 0,3
Fr, 23.02. 4:00 908 + 0,5
Fr, 23.02. 3:30 908 + 0,2
Ortszeit Schneehöhe (cm)
Fr, 23.02. 1:00 0
Do, 22.02. 19:00 0
Do, 22.02. 13:00 0
Do, 22.02. 7:00 0
Do, 22.02. 1:00 0
Mi, 21.02. 19:00 0
Mi, 21.02. 13:00 0
Mi, 21.02. 7:00 0
Ortszeit Schneehöhe (cm)
Fr, 23.02. 6:30 0
Fr, 23.02. 6:20 0
Fr, 23.02. 6:10 -
Fr, 23.02. 6:00 0
Fr, 23.02. 5:50 0
Fr, 23.02. 5:40 -
Fr, 23.02. 5:30 0
Fr, 23.02. 5:00 0
Fr, 23.02. 4:30 0
Fr, 23.02. 4:00 0
Fr, 23.02. 3:30 0
Link zu dieser Seite / Seite empfehlen

Das Wetter in ...